Flag for Luxembourg Weather past 2 weeks in Ettelbruck, Luxembourg

Now
68 °F

Partly sunny.


Feels Like: 68 °F
Forecast: 49 / 70 °F
Wind: 2 mph from Northeast

Location: Luxembourg / Luxembourg

Current Time: Oct 2, 2014 at 7:10:51 PM

Latest Report: Oct 2, 2014 at 6:00 PM


Visibility: 19 mi

Pressure: 30.32 "Hg

Humidity: 56%

Dew point: 52 °F

Location of EttelbruckLocation

Historic Weather in Ettelbruck — Graph

°F

Ettelbruck temperature yesterday

Maximum temperature yesterday: 70 °F (at 4:00 PM)
Minimum temperature yesterday: 51 °F (at 7:00 AM)
Average temperature yesterday: 60 °F

Past Weeks' High & Low Weather Summary

 TemperatureHumidityPressure
High77 °F (Sep 18, 4:00 PM)98% (Sep 21, 9:00 AM)30.40 "Hg (Sep 21, 9:00 AM)
Low42 °F (Sep 23, 6:00 AM)50% (Sep 18, 5:00 PM)29.80 "Hg (Sep 18, 5:00 PM)
Average59 °F82%30.14 "Hg
* Reported Sep 17 5:00 PM — Oct 2 5:00 PM, Ettelbruck, Weather by CustomWeather, © 2014

Note: Actual official high and low records may vary slightly from our data, if they occured in-between our weather recording intervals... More about our weather records

Advertising

Ettelbruck weather history for previous 24 hours

 ConditionsComfort  
Time TempWeatherWind HumidityBarometerVisibility
5:00 PM
Oct 2
70 °FScattered clouds.2 mph53%30.32 "Hg19 mi
4:00 PM69 °FPartly sunny.1 mph55%30.33 "Hg19 mi
3:00 PM69 °FPartly sunny.1 mph59%30.34 "Hg12 mi
2:00 PM68 °FPassing clouds.1 mph63%30.35 "Hg11 mi
1:00 PM66 °FPassing clouds.1 mph71%30.37 "Hg9 mi
12:00 PM62 °FPassing clouds.3 mph77%30.39 "Hg7 mi
11:00 AM60 °FPassing clouds.3 mph82%30.39 "Hg5 mi
10:00 AM59 °FFog.2 mph87%30.40 "Hg2 mi
9:00 AM56 °FFog.2 mph95%30.39 "Hg2 mi
8:00 AM53 °FFog.2 mph97%30.39 "Hg2 mi
7:00 AM53 °FFog.2 mph96%30.38 "Hg2 mi
6:00 AM54 °FClear.2 mph96%30.38 "Hg4 mi
5:00 AM53 °FClear.1 mph92%30.39 "Hg4 mi
4:00 AM56 °FCool.2 mph90%30.38 "Hg4 mi
3:00 AM56 °FCool.2 mph90%30.38 "Hg6 mi
2:00 AM55 °FClear.2 mph94%30.39 "Hg8 mi
1:00 AM54 °FCool.1 mph94%30.39 "Hg6 mi
12:00 AM53 °FPassing clouds.1 mph92%30.39 "Hg9 mi
11:00 PM
Oct 1
58 °FPassing clouds.2 mph78%30.37 "Hg9 mi
10:00 PM59 °FPassing clouds.1 mph75%30.36 "Hg9 mi
9:00 PM60 °FPassing clouds.2 mph75%30.35 "Hg11 mi
8:00 PM61 °FPassing clouds.2 mph76%30.34 "Hg11 mi
7:00 PM64 °FScattered clouds.2 mph74%30.32 "Hg16 mi
Weather by CustomWeather, © 2014

See weather overviewHow to use our weather pages